Temp
8 8 7 7 8 7 8 7 6 6 6 5 5 5 4 4 4 3 3 3 3 3
9 8 7 8 8 7 6 6 6 5 5 5 4 4 4 4 4 3 3 3 3 3
7 8 8 8 7 7 6 6 5 5 5 4 4 4 3 4 3 3 3 2 2 2
7 8 8 7 7 6 6 6 5 5 5 4 4 3 3 3 3 2 2 2 2 1
7 7 7 7 6 6 6 5 5 4 4 4 3 3 3 3 2 2 2 2 1 1
6 7 7 6 6 5 5 4 4 4 3 3 2 2 2 2 2 2 1 1 1 0
7 7 6 5 5 4 4 4 3 3 2 2 1 1 1 1 2 2 1 1 -0 -0
6 5 5 4 4 4 3 3 2 2 1 1 1 1 1 1 2 1 1 1 0 -0
5 4 4 4 3 3 2 2 2 1 1 1 1 0 -1 -0 1 1 0 0 -0 -0
4 4 3 3 3 3 2 2 1 1 1 1 0 -0 -1 -1 -0 0 -0 -1 -1 -1
4 3 3 3 2 1 2 2 1 1 0 -0 -0 -1 -2 -2 -1 -0 -1 -1 -1 -1
3 3 3 2 1 1 2 1 1 -0 -0 -0 -0 -2 -3 -2 -1 -1 -1 -1 -1 -1
3 3 2 2 1 1 1 0 -0 -0 -1 -1 -1 -2 -3 -3 -2 -1 -1 -1 -1 -1
2 2 2 1 1 0 0 -0 -0 -0 -0 -1 -2 -2 -3 -3 -2 -2 -2 -1 -1 -2
Height
744 752 758 762 771 780 787 790 795 797 798 799 801 802 803 804 805 804 804 804 802 801
744 751 757 764 774 780 785 789 793 796 798 801 801 801 803 804 804 803 803 802 801 799
744 752 759 767 775 781 786 789 793 796 799 800 801 801 802 802 801 801 801 800 799 796
747 755 761 768 776 783 786 789 794 797 799 800 800 801 801 801 800 800 799 798 795 793
747 758 764 770 776 782 786 791 794 797 799 799 799 799 799 799 799 798 796 794 792 789
752 762 767 772 777 783 788 791 794 797 798 798 797 798 798 797 796 795 793 791 789 786
757 765 770 774 779 784 788 791 794 796 797 796 796 796 796 795 794 792 790 788 786 783
760 768 772 776 781 785 788 791 793 795 796 795 795 796 794 793 791 789 787 784 781 779
763 770 774 779 783 786 788 791 793 795 794 794 794 792 792 791 788 786 783 780 777 774
767 772 777 781 784 787 789 791 793 793 793 793 792 790 789 788 785 783 780 777 773 770
770 775 778 782 785 786 789 791 792 792 792 791 790 788 787 785 782 779 776 773 769 766
772 776 780 783 784 787 789 790 791 790 790 790 789 786 783 781 778 775 771 768 764 761
774 778 780 782 785 787 789 789 789 789 789 787 785 783 781 779 776 771 767 764 759 756
776 778 780 783 786 787 788 789 789 788 786 785 783 781 778 776 772 769 764 759 755 751
Wind_Speed
27 30 31 33 33 26 19 16 14 12 10 9 7 6 5 3 1 1 2 3 4 6
28 33 34 34 31 25 19 17 14 12 10 8 7 5 3 1 1 1 3 5 6 7
29 35 34 34 25 19 18 16 14 11 9 7 5 3 1 0 1 3 5 6 8 9
30 36 34 27 21 18 17 15 12 10 8 6 4 2 1 2 3 5 6 7 9 11
37 31 28 23 21 18 16 13 11 9 7 5 3 1 2 3 5 7 8 9 11 12
30 26 24 23 20 17 15 13 10 7 6 4 2 1 3 5 7 9 10 11 12 14
26 24 23 21 19 16 14 12 9 6 4 2 1 2 4 7 9 11 12 13 14 16
25 23 22 20 17 15 12 10 8 5 3 2 2 3 7 9 11 13 14 15 16 17
24 22 20 18 16 14 11 9 6 3 2 2 3 7 7 10 12 14 15 17 18 18
22 21 18 16 14 12 9 7 4 3 2 4 5 8 9 11 13 15 16 18 19 20
20 19 17 15 12 11 8 5 3 2 3 5 6 9 11 13 14 15 16 18 19 20
19 18 16 13 12 8 6 3 2 2 4 6 7 10 12 13 15 15 17 18 20 19
17 16 14 13 9 7 4 2 2 3 5 7 8 10 12 13 14 16 19 20 21 21
15 17 15 11 8 5 3 2 3 5 7 6 8 10 12 13 14 17 21 22 23 22
Wind_Direction
155 152 149 153 155 150 150 144 145 136 128 120 119 105 99 94 143 287 274 280 291 287
151 152 150 152 154 149 146 140 138 134 128 126 112 102 106 163 236 267 291 298 297 296
146 153 150 149 147 140 140 138 136 133 134 124 117 113 133 256 300 308 300 301 301 303
142 145 143 140 139 141 136 134 134 136 134 132 123 116 39 338 307 301 299 303 305 303
138 136 136 138 137 136 132 132 133 134 131 125 116 64 348 318 299 297 301 308 306 306
130 137 136 134 133 133 132 132 130 128 127 118 79 359 325 305 300 301 304 304 305 306
135 136 134 132 131 132 133 129 127 125 116 100 24 329 315 308 307 305 302 302 300 302
131 132 130 129 130 130 127 125 127 126 113 42 353 321 321 314 308 304 301 300 300 299
130 130 129 129 130 128 125 126 127 118 61 358 339 322 325 317 309 302 301 303 304 303
131 129 130 130 130 129 129 129 114 74 10 339 329 331 324 316 310 303 303 304 306 308
132 131 131 132 132 126 123 112 92 23 347 333 321 327 324 319 313 303 302 306 307 305
136 135 136 133 128 122 116 102 53 348 334 326 318 319 329 324 314 307 307 308 307 305
138 136 134 130 123 118 107 80 1 329 314 312 319 318 322 327 317 313 314 314 312 310
135 135 129 121 119 109 86 20 337 326 318 311 313 320 324 324 322 318 316 314 313 312